This is the latest recevied weather packets stored in our database for station/object AB4KN. If no packets are shown the sender has not sent any weather packets the latest 10 day(s).
| Time | Temp. | Humidity | Pressure | Rain* | Wind** | Luminosity | Snow |
|---|---|---|---|---|---|---|---|
| 1777901175 | 13.33° C | 71% | 1023.8 hPa | 0 mm | - | 21 W/m² | - |
| 1777900873 | 12.78° C | 71% | 1023.8 hPa | 0 mm | - | 19 W/m² | - |
| 1777900570 | 12.78° C | 72% | 1023.7 hPa | 0 mm | - | 18 W/m² | - |
| 1777900267 | 12.22° C | 73% | 1023.7 hPa | 0 mm | - | 18 W/m² | - |
| 1777899963 | 12.22° C | 73% | 1023.5 hPa | 0 mm | - | 17 W/m² | - |
| 1777899660 | 11.67° C | 73% | 1023.9 hPa | 0 mm | - | 16 W/m² | - |
| 1777899357 | 11.11° C | 77% | 1023.5 hPa | 0 mm | - | 16 W/m² | - |
| 1777899055 | 10.56° C | 78% | 1023.6 hPa | 0 mm | - | 16 W/m² | - |
| 1777898751 | 10.56° C | 80% | 1023.6 hPa | 0 mm | - | 15 W/m² | - |
| 1777898449 | 10.56° C | 82% | 1023.7 hPa | 0 mm | - | 13 W/m² | - |
| 1777898147 | 10° C | 85% | 1023.5 hPa | 0 mm | - | 13 W/m² | - |
| 1777897844 | 10° C | 86% | 1023.6 hPa | 0 mm | - | 14 W/m² | - |
| 1777897540 | 10° C | 86% | 1023.7 hPa | 0 mm | - | 15 W/m² | - |
| 1777897235 | 10° C | 86% | 1023.7 hPa | 0 mm | - | 15 W/m² | - |
| 1777896932 | 9.44° C | 86% | 1023.7 hPa | 0 mm | - | 18 W/m² | - |
| 1777896629 | 9.44° C | 86% | 1023.5 hPa | 0 mm | - | 17 W/m² | - |
| 1777896326 | 8.89° C | 86% | 1023.6 hPa | 0 mm | - | 18 W/m² | - |
| 1777896025 | 8.89° C | 86% | 1023.6 hPa | 0 mm | - | 16 W/m² | - |
| 1777895722 | 8.33° C | 86% | 1023.6 hPa | 0 mm | - | 13 W/m² | - |
| 1777895419 | 8.33° C | 86% | 1023.5 hPa | 0 mm | - | 12 W/m² | - |
| 1777895117 | 8.33° C | 86% | 1023.6 hPa | 0 mm | - | 10 W/m² | - |
| 1777894814 | 8.33° C | 86% | 1023.2 hPa | 0 mm | - | 8 W/m² | - |
| 1777894510 | 8.33° C | 86% | 1023 hPa | 0 mm | - | 6 W/m² | - |
| 1777894208 | 8.33° C | 86% | 1023 hPa | 0 mm | - | 6 W/m² | - |
| 1777893904 | 7.78° C | 85% | 1023 hPa | 0 mm | - | 6 W/m² | - |
* Rain latest hour (hover to see other rain measurements)
** Current wind speed in m/s (hover to see current wind gust speed)